Time,TemperatureF,DewpointF,PressureIn,WindDirection,WindDirectionDegrees,WindSpeedMPH,WindSpeedGustMPH,Humidity,HourlyPrecipIn,Conditions,Clouds,dailyrainin,SoftwareType,DateUTC
2013-02-04 00:03:00,22.0,18.0,29.73,NNE,17,0.0,0.0,86,0.00,,,0.00,,2013-02-04 05:03:00,
2013-02-04 00:11:00,22.0,18.0,29.73,NNE,17,0.0,0.0,86,0.00,,,0.00,,2013-02-04 05:11:00,
2013-02-04 00:22:00,22.0,18.0,29.73,NNE,17,0.0,0.0,86,0.00,,,0.00,,2013-02-04 05:22:00,
2013-02-04 00:33:00,21.0,17.0,29.73,NNE,17,0.0,3.0,86,0.00,,,0.00,,2013-02-04 05:33:00,
2013-02-04 00:42:00,21.0,17.0,29.73,NNE,17,0.0,3.0,86,0.00,,,0.00,,2013-02-04 05:42:00,
2013-02-04 00:52:00,21.0,17.0,29.72,NNE,17,0.0,0.0,86,0.00,,,0.00,,2013-02-04 05:52:00,
2013-02-04 01:02:00,20.0,16.0,29.72,NNE,17,0.0,2.0,86,0.00,,,0.00,,2013-02-04 06:02:00,
2013-02-04 01:11:00,20.0,16.0,29.72,NNE,17,0.0,2.0,86,0.00,,,0.00,,2013-02-04 06:11:00,
2013-02-04 01:21:00,19.0,16.0,29.73,NNW,331,0.0,3.0,86,0.00,,,0.00,,2013-02-04 06:21:00,
2013-02-04 01:32:00,19.0,15.0,29.72,NNW,329,0.0,4.0,84,0.00,,,0.00,,2013-02-04 06:32:00,
2013-02-04 01:42:00,19.0,15.0,29.72,NNW,329,0.0,4.0,84,0.00,,,0.00,,2013-02-04 06:42:00,
2013-02-04 01:51:00,19.0,14.0,29.73,NW,325,1.0,5.0,81,0.00,,,0.00,,2013-02-04 06:51:00,
2013-02-04 02:02:00,18.0,13.0,29.73,NW,325,0.0,4.0,79,0.00,,,0.00,,2013-02-04 07:02:00,
2013-02-04 02:11:00,18.0,12.0,29.73,NW,318,2.0,5.0,77,0.00,,,0.00,,2013-02-04 07:11:00,
2013-02-04 02:21:00,18.0,12.0,29.73,NW,318,2.0,5.0,77,0.00,,,0.00,,2013-02-04 07:21:00,
2013-02-04 02:32:00,19.0,12.0,29.73,West,277,0.0,6.0,74,0.00,,,0.00,,2013-02-04 07:32:00,
2013-02-04 02:42:00,19.0,12.0,29.73,West,277,0.0,6.0,74,0.00,,,0.00,,2013-02-04 07:42:00,
2013-02-04 02:52:00,19.0,11.0,29.73,SW,221,1.0,7.0,71,0.00,,,0.00,,2013-02-04 07:52:00,
2013-02-04 03:01:00,20.0,11.0,29.73,WNW,284,2.0,6.0,68,0.00,,,0.00,,2013-02-04 08:01:00,
2013-02-04 03:11:00,20.0,11.0,29.73,WNW,284,2.0,6.0,68,0.00,,,0.00,,2013-02-04 08:11:00,
2013-02-04 03:21:00,20.0,11.0,29.73,WNW,290,0.0,5.0,66,0.00,,,0.00,,2013-02-04 08:21:00,
2013-02-04 03:32:00,19.0,10.0,29.72,WNW,289,2.0,7.0,67,0.00,,,0.00,,2013-02-04 08:32:00,
2013-02-04 03:42:00,19.0,10.0,29.72,WNW,289,2.0,7.0,67,0.00,,,0.00,,2013-02-04 08:42:00,
2013-02-04 03:52:00,19.0,10.0,29.73,West,271,1.0,5.0,67,0.00,,,0.00,,2013-02-04 08:52:00,
2013-02-04 04:02:00,18.0,9.0,29.73,West,281,1.0,6.0,68,0.00,,,0.00,,2013-02-04 09:02:00,
2013-02-04 04:11:00,19.0,10.0,29.73,WNW,282,0.0,3.0,68,0.00,,,0.00,,2013-02-04 09:11:00,
2013-02-04 04:21:00,19.0,10.0,29.73,WNW,282,0.0,3.0,68,0.00,,,0.00,,2013-02-04 09:21:00,
2013-02-04 04:32:00,18.0,10.0,29.73,WNW,284,0.0,5.0,69,0.00,,,0.00,,2013-02-04 09:32:00,
2013-02-04 04:42:00,18.0,10.0,29.73,WNW,284,0.0,5.0,69,0.00,,,0.00,,2013-02-04 09:42:00,
2013-02-04 04:51:00,18.0,10.0,29.73,WNW,284,0.0,3.0,70,0.00,,,0.00,,2013-02-04 09:51:00,
2013-02-04 05:02:00,18.0,10.0,29.74,WNW,284,0.0,5.0,70,0.00,,,0.00,,2013-02-04 10:02:00,
2013-02-04 05:11:00,18.0,10.0,29.74,WNW,284,0.0,5.0,70,0.00,,,0.00,,2013-02-04 10:11:00,
2013-02-04 05:21:00,18.0,10.0,29.74,WNW,284,0.0,5.0,70,0.00,,,0.00,,2013-02-04 10:21:00,
2013-02-04 05:32:00,18.0,10.0,29.75,WNW,284,1.0,10.0,71,0.00,,,0.00,,2013-02-04 10:32:00,
2013-02-04 05:42:00,18.0,10.0,29.75,WNW,284,1.0,10.0,71,0.00,,,0.00,,2013-02-04 10:42:00,
2013-02-04 05:52:00,18.0,10.0,29.75,WNW,284,1.0,10.0,71,0.00,,,0.00,,2013-02-04 10:52:00,
2013-02-04 06:02:00,19.0,11.0,29.75,WNW,290,1.0,5.0,70,0.00,,,0.00,,2013-02-04 11:02:00,
2013-02-04 06:11:00,19.0,11.0,29.75,WNW,290,1.0,5.0,70,0.00,,,0.00,,2013-02-04 11:11:00,
2013-02-04 06:22:00,19.0,11.0,29.76,West,273,4.0,8.0,70,0.00,,,0.00,,2013-02-04 11:22:00,
2013-02-04 06:33:00,19.0,11.0,29.76,West,278,1.0,7.0,70,0.00,,,0.00,,2013-02-04 11:33:00,
2013-02-04 06:42:00,19.0,11.0,29.76,West,278,1.0,7.0,70,0.00,,,0.00,,2013-02-04 11:42:00,
2013-02-04 06:52:00,19.0,11.0,29.77,WNW,282,1.0,8.0,70,0.00,,,0.00,,2013-02-04 11:52:00,
2013-02-04 07:03:00,19.0,11.0,29.78,NW,321,0.0,7.0,70,0.00,,,0.00,,2013-02-04 12:03:00,
2013-02-04 07:12:00,19.0,11.0,29.78,NW,321,0.0,7.0,70,0.00,,,0.00,,2013-02-04 12:12:00,
2013-02-04 07:22:00,19.0,11.0,29.78,WNW,284,1.0,5.0,69,0.00,,,0.00,,2013-02-04 12:22:00,
2013-02-04 07:32:00,19.0,10.0,29.78,WNW,290,2.0,7.0,68,0.00,,,0.00,,2013-02-04 12:32:00,
2013-02-04 07:42:00,19.0,10.0,29.78,WNW,290,2.0,7.0,68,0.00,,,0.00,,2013-02-04 12:42:00,
2013-02-04 07:52:00,20.0,11.0,29.78,West,275,5.0,10.0,67,0.00,,,0.00,,2013-02-04 12:52:00,
2013-02-04 08:03:00,21.0,11.0,29.78,West,267,2.0,13.0,64,0.00,,,0.00,,2013-02-04 13:03:00,
2013-02-04 08:12:00,22.0,11.0,29.79,WNW,292,1.0,7.0,63,0.00,,,0.00,,2013-02-04 13:12:00,
2013-02-04 08:22:00,22.0,11.0,29.79,WNW,292,1.0,7.0,63,0.00,,,0.00,,2013-02-04 13:22:00,
2013-02-04 08:33:00,23.0,12.0,29.79,SSW,208,2.0,13.0,61,0.00,,,0.00,,2013-02-04 13:33:00,
2013-02-04 08:42:00,23.0,12.0,29.79,SSW,208,2.0,13.0,61,0.00,,,0.00,,2013-02-04 13:42:00,
2013-02-04 08:52:00,24.0,13.0,29.79,WNW,303,4.0,10.0,61,0.00,,,0.00,,2013-02-04 13:52:00,
2013-02-04 09:03:00,25.0,13.0,29.79,SW,229,3.0,10.0,59,0.00,,,0.00,,2013-02-04 14:03:00,
2013-02-04 09:12:00,25.0,13.0,29.79,SW,229,3.0,10.0,59,0.00,,,0.00,,2013-02-04 14:12:00,
2013-02-04 09:22:00,25.0,10.0,29.79,West,271,9.0,14.0,53,0.00,,,0.00,,2013-02-04 14:22:00,
2013-02-04 09:33:00,25.0,11.0,29.80,SSW,209,4.0,17.0,54,0.00,,,0.00,,2013-02-04 14:33:00,
2013-02-04 09:42:00,25.0,11.0,29.80,SSW,209,4.0,17.0,54,0.00,,,0.00,,2013-02-04 14:42:00,
2013-02-04 09:52:00,25.0,10.0,29.80,WNW,300,3.0,14.0,53,0.00,,,0.00,,2013-02-04 14:52:00,
2013-02-04 10:03:00,26.0,10.0,29.80,WNW,296,4.0,14.0,50,0.00,,,0.00,,2013-02-04 15:03:00,
2013-02-04 10:12:00,26.0,10.0,29.80,WNW,296,4.0,14.0,50,0.00,,,0.00,,2013-02-04 15:12:00,
2013-02-04 10:23:00,26.0,10.0,29.80,WNW,296,4.0,14.0,50,0.00,,,0.00,,2013-02-04 15:23:00,
2013-02-04 10:33:00,27.0,8.0,29.80,WNW,303,5.0,14.0,44,0.00,,,0.00,,2013-02-04 15:33:00,
2013-02-04 10:43:00,27.0,8.0,29.80,WNW,303,5.0,14.0,44,0.00,,,0.00,,2013-02-04 15:43:00,
2013-02-04 10:53:00,28.0,9.0,29.80,WNW,290,6.0,13.0,44,0.00,,,0.00,,2013-02-04 15:53:00,
2013-02-04 11:03:00,27.0,7.0,29.80,West,280,5.0,16.0,42,0.00,,,0.00,,2013-02-04 16:03:00,
2013-02-04 11:11:00,27.0,7.0,29.80,West,280,5.0,16.0,42,0.00,,,0.00,,2013-02-04 16:11:00,
2013-02-04 11:22:00,26.0,7.0,29.80,NNW,346,4.0,21.0,44,0.00,,,0.00,,2013-02-04 16:22:00,
2013-02-04 11:33:00,27.0,7.0,29.80,North,355,7.0,17.0,42,0.00,,,0.00,,2013-02-04 16:33:00,
2013-02-04 11:43:00,27.0,7.0,29.80,North,355,7.0,17.0,42,0.00,,,0.00,,2013-02-04 16:43:00,
2013-02-04 11:51:00,27.0,6.0,29.80,North,9,8.0,18.0,41,0.00,,,0.00,,2013-02-04 16:51:00,
2013-02-04 12:02:00,27.0,5.0,29.80,WNW,290,7.0,22.0,38,0.00,,,0.00,,2013-02-04 17:02:00,
2013-02-04 12:11:00,27.0,5.0,29.80,WNW,290,7.0,22.0,38,0.00,,,0.00,,2013-02-04 17:11:00,
2013-02-04 12:21:00,26.0,5.0,29.80,WNW,291,4.0,18.0,40,0.00,,,0.00,,2013-02-04 17:21:00,
2013-02-04 12:32:00,26.0,4.0,29.79,WSW,239,8.0,22.0,39,0.00,,,0.00,,2013-02-04 17:32:00,
2013-02-04 12:42:00,26.0,4.0,29.79,WSW,239,8.0,22.0,39,0.00,,,0.00,,2013-02-04 17:42:00,
2013-02-04 12:51:00,28.0,5.0,29.79,SSW,207,8.0,18.0,37,0.00,,,0.00,,2013-02-04 17:51:00,
2013-02-04 13:03:00,28.0,6.0,29.78,NW,308,6.0,12.0,39,0.00,,,0.00,,2013-02-04 18:03:00,
2013-02-04 13:11:00,28.0,6.0,29.78,NW,308,6.0,12.0,39,0.00,,,0.00,,2013-02-04 18:11:00,
2013-02-04 13:22:00,26.0,7.0,29.78,West,262,5.0,11.0,43,0.00,,,0.00,,2013-02-04 18:22:00,
2013-02-04 13:32:00,27.0,9.0,29.78,SSW,203,7.0,15.0,45,0.00,,,0.00,,2013-02-04 18:32:00,
2013-02-04 13:42:00,27.0,9.0,29.78,SSW,203,7.0,15.0,45,0.00,,,0.00,,2013-02-04 18:42:00,
2013-02-04 13:52:00,27.0,8.0,29.78,SSW,196,6.0,10.0,44,0.00,,,0.00,,2013-02-04 18:52:00,
2013-02-04 14:02:00,26.0,7.0,29.78,WSW,238,7.0,18.0,43,0.00,,,0.00,,2013-02-04 19:02:00,
2013-02-04 14:11:00,26.0,7.0,29.78,WSW,238,7.0,18.0,43,0.00,,,0.00,,2013-02-04 19:11:00,
2013-02-04 14:22:00,26.0,7.0,29.78,WSW,238,7.0,18.0,43,0.00,,,0.00,,2013-02-04 19:22:00,
2013-02-04 14:32:00,27.0,4.0,29.78,WSW,257,6.0,18.0,36,0.00,,,0.00,,2013-02-04 19:32:00,
2013-02-04 14:42:00,27.0,4.0,29.78,WSW,257,6.0,18.0,36,0.00,,,0.00,,2013-02-04 19:42:00,
2013-02-04 14:52:00,26.0,3.0,29.79,NNW,328,7.0,17.0,36,0.00,,,0.00,,2013-02-04 19:52:00,
2013-02-04 15:02:00,26.0,3.0,29.79,WSW,252,11.0,20.0,36,0.00,,,0.00,,2013-02-04 20:02:00,
2013-02-04 15:12:00,26.0,3.0,29.79,WSW,252,11.0,20.0,36,0.00,,,0.00,,2013-02-04 20:12:00,
2013-02-04 15:22:00,28.0,4.0,29.80,WNW,297,4.0,10.0,35,0.00,,,0.00,,2013-02-04 20:22:00,
2013-02-04 15:32:00,27.0,4.0,29.81,SSW,213,5.0,20.0,37,0.00,,,0.00,,2013-02-04 20:32:00,
2013-02-04 15:42:00,27.0,4.0,29.81,SSW,213,5.0,20.0,37,0.00,,,0.00,,2013-02-04 20:42:00,
2013-02-04 15:52:00,27.0,4.0,29.81,SSW,193,4.0,17.0,36,0.00,,,0.00,,2013-02-04 20:52:00,
2013-02-04 16:02:00,27.0,5.0,29.80,West,279,4.0,11.0,38,0.00,,,0.00,,2013-02-04 21:02:00,
2013-02-04 16:11:00,27.0,5.0,29.80,West,279,4.0,11.0,38,0.00,,,0.00,,2013-02-04 21:11:00,
2013-02-04 16:22:00,26.0,5.0,29.80,West,273,7.0,19.0,40,0.00,,,0.00,,2013-02-04 21:22:00,
2013-02-04 16:32:00,25.0,6.0,29.81,West,278,2.0,13.0,44,0.00,,,0.00,,2013-02-04 21:32:00,
2013-02-04 16:42:00,25.0,6.0,29.81,West,278,2.0,13.0,44,0.00,,,0.00,,2013-02-04 21:42:00,
2013-02-04 16:52:00,25.0,7.0,29.81,WSW,254,1.0,12.0,45,0.00,,,0.00,,2013-02-04 21:52:00,
2013-02-04 17:03:00,24.0,5.0,29.82,WNW,296,4.0,20.0,44,0.00,,,0.00,,2013-02-04 22:03:00,
2013-02-04 17:12:00,24.0,5.0,29.82,WNW,296,4.0,20.0,44,0.00,,,0.00,,2013-02-04 22:12:00,
2013-02-04 17:21:00,24.0,6.0,29.82,West,261,2.0,11.0,46,0.00,,,0.00,,2013-02-04 22:21:00,
2013-02-04 17:32:00,24.0,6.0,29.83,SSW,205,3.0,16.0,45,0.00,,,0.00,,2013-02-04 22:32:00,
2013-02-04 17:42:00,24.0,6.0,29.83,SSW,205,3.0,16.0,45,0.00,,,0.00,,2013-02-04 22:42:00,
2013-02-04 17:52:00,23.0,5.0,29.83,West,281,5.0,12.0,45,0.00,,,0.00,,2013-02-04 22:52:00,
2013-02-04 18:01:00,23.0,5.0,29.84,West,261,4.0,12.0,46,0.00,,,0.00,,2013-02-04 23:01:00,
2013-02-04 18:11:00,23.0,5.0,29.84,West,261,4.0,12.0,46,0.00,,,0.00,,2013-02-04 23:11:00,
2013-02-04 18:21:00,23.0,6.0,29.85,WSW,238,1.0,9.0,47,0.00,,,0.00,,2013-02-04 23:21:00,
2013-02-04 18:32:00,23.0,6.0,29.85,WSW,238,1.0,9.0,47,0.00,,,0.00,,2013-02-04 23:32:00,
2013-02-04 18:42:00,23.0,6.0,29.85,WSW,238,1.0,9.0,47,0.00,,,0.00,,2013-02-04 23:42:00,
2013-02-04 18:52:00,22.0,6.0,29.85,WSW,244,1.0,11.0,49,0.00,,,0.00,,2013-02-04 23:52:00,
2013-02-04 19:02:00,22.0,6.0,29.87,West,265,2.0,11.0,49,0.00,,,0.00,,2013-02-05 00:02:00,
2013-02-04 19:12:00,22.0,6.0,29.87,West,265,2.0,11.0,49,0.00,,,0.00,,2013-02-05 00:12:00,
2013-02-04 19:22:00,22.0,5.0,29.87,WSW,246,5.0,14.0,48,0.00,,,0.00,,2013-02-05 00:22:00,
2013-02-04 19:32:00,22.0,6.0,29.87,WNW,291,3.0,8.0,50,0.00,,,0.00,,2013-02-05 00:32:00,
2013-02-04 19:42:00,22.0,6.0,29.87,WNW,291,3.0,8.0,50,0.00,,,0.00,,2013-02-05 00:42:00,
2013-02-04 19:52:00,22.0,6.0,29.88,West,271,4.0,11.0,50,0.00,,,0.00,,2013-02-05 00:52:00,
2013-02-04 20:02:00,21.0,5.0,29.89,West,263,3.0,9.0,50,0.00,,,0.00,,2013-02-05 01:02:00,
2013-02-04 20:12:00,21.0,5.0,29.89,West,263,3.0,9.0,50,0.00,,,0.00,,2013-02-05 01:12:00,
2013-02-04 20:22:00,21.0,6.0,29.89,West,261,2.0,8.0,51,0.00,,,0.00,,2013-02-05 01:22:00,
2013-02-04 20:32:00,21.0,6.0,29.89,West,271,4.0,12.0,52,0.00,,,0.00,,2013-02-05 01:32:00,
2013-02-04 20:42:00,21.0,6.0,29.89,West,271,4.0,12.0,52,0.00,,,0.00,,2013-02-05 01:42:00,
2013-02-04 20:52:00,21.0,6.0,29.89,West,281,0.0,9.0,52,0.00,,,0.00,,2013-02-05 01:52:00,
2013-02-04 21:01:00,20.0,6.0,29.90,WSW,249,4.0,10.0,53,0.00,,,0.00,,2013-02-05 02:01:00,
2013-02-04 21:11:00,20.0,6.0,29.90,WSW,249,4.0,10.0,53,0.00,,,0.00,,2013-02-05 02:11:00,
2013-02-04 21:22:00,20.0,6.0,29.91,WNW,300,1.0,5.0,54,0.00,,,0.00,,2013-02-05 02:22:00,
2013-02-04 21:32:00,20.0,6.0,29.92,WNW,300,0.0,3.0,55,0.00,,,0.00,,2013-02-05 02:32:00,
2013-02-04 21:42:00,20.0,6.0,29.92,WNW,300,0.0,3.0,55,0.00,,,0.00,,2013-02-05 02:42:00,
2013-02-04 21:52:00,19.0,6.0,29.92,WNW,300,1.0,3.0,57,0.00,,,0.00,,2013-02-05 02:52:00,
2013-02-04 22:02:00,18.0,6.0,29.92,WNW,300,0.0,2.0,58,0.00,,,0.00,,2013-02-05 03:02:00,
2013-02-04 22:11:00,18.0,6.0,29.92,WNW,300,0.0,2.0,58,0.00,,,0.00,,2013-02-05 03:11:00,
2013-02-04 22:21:00,18.0,6.0,29.92,WNW,300,0.0,4.0,59,0.00,,,0.00,,2013-02-05 03:21:00,
2013-02-04 22:32:00,18.0,7.0,29.92,WNW,300,0.0,2.0,61,0.00,,,0.00,,2013-02-05 03:32:00,
2013-02-04 22:42:00,18.0,7.0,29.92,WNW,300,0.0,2.0,61,0.00,,,0.00,,2013-02-05 03:42:00,
2013-02-04 22:52:00,17.0,6.0,29.92,WNW,300,0.0,2.0,62,0.00,,,0.00,,2013-02-05 03:52:00,
2013-02-04 23:01:00,17.0,6.0,29.92,WNW,300,0.0,3.0,62,0.00,,,0.00,,2013-02-05 04:01:00,
2013-02-04 23:11:00,17.0,6.0,29.92,WNW,300,0.0,3.0,62,0.00,,,0.00,,2013-02-05 04:11:00,
2013-02-04 23:22:00,17.0,6.0,29.92,WNW,300,0.0,2.0,62,0.00,,,0.00,,2013-02-05 04:22:00,
2013-02-04 23:32:00,17.0,7.0,29.93,WNW,300,0.0,3.0,63,0.00,,,0.00,,2013-02-05 04:32:00,
2013-02-04 23:42:00,17.0,7.0,29.93,WNW,300,0.0,3.0,63,0.00,,,0.00,,2013-02-05 04:42:00,
2013-02-04 23:52:00,16.0,6.0,29.93,WNW,300,0.0,3.0,64,0.00,,,0.00,,2013-02-05 04:52:00,